Location: ??????????
(54.4061°N, 22.6114°E)
Time: 20:19:18
(UTC+00:00)

Cosmos 1825 - Pass Details

Date: 23 October 2019
Orbit: 503 x 510 km, 82.5° (Epoch: 12 November)

Event Time Altitude Azimuth Distance (km) Brightness Sun altitude
Rises 18:22:20 0° 346° (NNW) 2,618 6.2 -27.7°
Reaches altitude 10° 18:24:29 10° 343° (NNW) 1,728 5.3 -28.0°
Enters shadow 18:25:55 22° 338° (NNW) 1,155 4.3 -28.2°
